Tracking 30970 objects as of 3-Jul-2025
HD Live streaming from Space Station
objects crossing your sky now

STARLINK-2109

Track STARLINK-2109 now!
10-day predictions
STARLINK-2109 is classified as:


NORAD ID: 47388
Int'l Code: 2021-005AR
Perigee: 553.3 km
Apogee: 555.4 km
Inclination: 53.1 °
Period: 95.6 minutes
Semi major axis: 6925 km
RCS: Unknown
Launch date: January 20, 2021
Source: United States (US)
Launch site: AIR FORCE EASTERN TEST RANGE (AFETR)
Your satellite tracking list
COSMOS 1818 COOLANT
Track 1 satellite(s)




NASA's NSSDC Master Catalog

Two Line Element Set (TLE):
1 47388U 21005AR  25183.94432664 -.00000389  00000-0 -72340-5 0  9998
2 47388  53.0556 102.7705 0001497  93.4586 266.6574 15.06396349245399
Source of the keplerian elements: AFSPC